Погода в Питерском

Россия / Тамбовская область     53°21′31″N   41°45′29″E
темп.,
°C
ветер,
м/с
пор.,
м/с
влажн.,
%
обл.,
%
осадки,
мм/ч
давл.,
гПа
погр.,
м
13 мая, чт
чт1300:00+7вюв229623 0.0 102117
03:00+6в23965 0.0 102145
06:00+8всв25945 0.0 1020128
09:00+15всв237186 0.0 1018405
12:00+20вюв345252 0.0 10171154
15:00+21ююв45546 0.0 10151698
18:00+19ююз25670 0.0 1015199
21:00+13ю22820 0.1 101717
14 мая, пт
пт1400:00+12юв2282100 0.0 101816
03:00+11ююв2284100 0.0 101812
06:00+13вюв268150 0.0 1018133
09:00+20юв366198 0.0 1018585
12:00+24юв465460 0.0 10171326
15:00+25юв4653100 0.0 10161327
18:00+22юв2770100 0.0 1015234
21:00+18юв379019 0.6 1014106
15 мая, сб
сб1500:00+16юв399397 0.0 1013167
03:00+15юв3995100 0.0 1013186
06:00+15ююв3118674 0.0 1013309
09:00+21ю6106093 0.0 1013637
12:00+25ю695151 0.0 10131157
15:00+23ююв51056100 0.0 1012779
18:00+22ююз49655 0.0 1013834
21:00+16ююз24930 0.0 101368
16 мая, вс
вс1600:00+15зюз22915 0.0 101423
03:00+13юз229354 0.0 101513
06:00+15юз1287100 0.0 101576
09:00+20зюз2359100 0.0 1016596
12:00+23з234546 0.1 10161449
15:00+24з134476 0.3 10151707
18:00+22ссз226269 0.1 101464
21:00+16св22825 0.8 101511
17 мая, пн
пн1700:00+14св24895 0.0 101561
03:00+14всв3890100 0.0 1016131
06:00+15всв27895 0.0 1015187
09:00+23в466116 0.0 1015565
12:00+27юв46415 0.0 10141112
15:00+27юв57335 0.0 10141433
18:00+24юв375792 0.0 1014228
21:00+18вюв3877100 0.0 1014136